STARLINK-1656, 46353

Orbit data source: Space-Track

STARLINK-1656, 46353 is a payload satellite owned by SpaceX/Seattle (US) in LEO that was launched on Thu, 03 Sep 2020 UTC via an FALCON 9 launch vehicle from the Air Force Eastern Test Range (AFETR). Payload-class satellites include a variety of spacecraft equipped with specific instruments for various scientific and technological missions. These include communications satellites like Starlink; space stations such as the ISS; scientific satellites like the Hubble; Earth observation satellites from companies like Planet Labs, Umbra, and HawkEye 360; GPS; miniature CubeSats for education and research; and military/defense satellites.

Loading next visibility...
Identifier
46353, 2020-062AE
Orbit
LEO
Country
Flag of USUS
Related business
Manufacturer
SpaceX/Seattle
Mission
Operational Commercial Communications
Bus & Motor
STARLINK, Unknown motor
Mass
260 kg wet, ~248 kg dry
Launch date (UTC)
2020-09-03 (5 years ago)
Launch vehicle
FALCON 9
Launch site
Air Force Eastern Test Range (AFETR)
Object type
Payload
Rocket body
Debris
Shape & HBR
Box + 1 Pan, 10.1 m
Radar Cross Section
13.562 m², Large (>1 m²)

Expand to show TLE details & history
Last TLE update: 21 hours ago

TLE from 21 hours ago
0 STARLINK-1656
1 46353U 20062AE  25290.30072105  .00005651  00000-0  39784-3 0  9998
2 46353  53.0532 300.3193 0001330  85.3052 274.8089 15.06410721282692
Epoch: 2025-10-17T07:13Z
TLE epoch observation values (Epoch: 2025-10-17T07:13:02.298Z)
Latitude
-0.00002°
Longitude
166.01165°
Altitude
547.981 km
Speed
7.589 km/s
True Right ascension
20h 01m 16s
True Declination
0° 00' 00"
Sunlit
Object was in daylight at epoch
Visualization orbit readout
Latitude
Unknown
Longitude
Unknown
Altitude
Unknown
Speed
Unknown
Apparent Right ascension
Unknown
Apparent Declination
Unknown
Sunlit
N/A
Visualization observer readout
Local Sidereal Time
22:32:29
Azimuth
Unknown
Elevation
Unknown
Doppler factor
Unknown
Orbital elements
Apogee altitude
548.371 km
Perigee altitude
546.529 km
Semi-major axis
6,925.587 km
Eccentricity
0.00013
Inclination
53.0532°
RAAN
300.3193°
Arg. of periapsis
85.3052°
True anomaly
274.79371°
Mean anomaly
274.8089°
Eccentric anomaly
274.80131°
Mean motion
3.76581 °/min
Orbital period
95.6 mins
BSTAR
0.00039784
Loading maneuver chart data...
Computing Atmospheric mass density...
Loading historical data...
Loading historical data...
Loading historical data...
Loading historical data...
Loading historical data...
Loading historical data...
Loading historical data...

Documentation

Showing up to 5 results
|